User: anonymous   Login
Location: Brede
(50.9167°N, 0.6000°E)
Time: 19:09:51
(UTC+00:00)
Language:

CZ-2C R/B - Orbit

View from above orbital plane
View from above orbital plane
View from above satellite
View from above satellite

Ground track
Ground track

The orbit data is extracted from the following two-line orbital elements,

1 28222U 04012C   20304.18686279  .00000891  00000-0  56964-4 0  9991
2 28222  97.6951 267.2220 0045490 289.9081  79.5665 15.10523808906360
Epoch (UTC): 30 October 2020 04:29:04
Eccentricity: 0.0045490
inclination: 97.6951°
perigee height: 503 km
apogee height: 566 km
right ascension of ascending node: 267.2220°
argument of perigee: 289.9081°
revolutions per day: 15.10523808
mean anomaly at epoch: 79.5665°
orbit number at epoch: 90636

The dashed part of the orbit path shows where the satellite is in the earth's shadow,  

DLR